,,Stat6,,Stat2,,Stat8,,Stat9,,Stat10,,Wind1,,Wind1,
time,status,PA1M_AVG,status,PR1M_SUM,status,RH1M_AVG,status,SR1M_AVG,status,TA1M_AVG,status,W1dAve1m,status,W1sAve1m,
2007-04-03, 00:00:00,VALID,918.128,VALID,0,VALID,100,VALID,0,VALID,20.3216,VALID,32,VALID,0.238653,
2007-04-03, 00:01:00,VALID,918.109,VALID,0,VALID,100,VALID,0.0169808,VALID,20.3313,VALID,32,VALID,0.204055,
2007-04-03, 00:02:00,VALID,918.109,VALID,0,VALID,100,VALID,0,VALID,20.3218,VALID,32,VALID,0.099359,
2007-04-03, 00:03:00,VALID,918.097,VALID,0,VALID,100,VALID,-0.0169808,VALID,20.3058,VALID,32,VALID,0.0477431,
2007-04-03, 00:04:00,VALID,918.095,VALID,0,VALID,100,VALID,0.0169808,VALID,20.2981,VALID,32,VALID,0.0329241,
2007-04-03, 00:05:00,VALID,918.088,VALID,0,VALID,100,VALID,-0.0169808,VALID,20.2856,VALID,40,VALID,0.207485,
2007-04-03, 00:06:00,VALID,918.084,VALID,0,VALID,100,VALID,0,VALID,20.2661,VALID,43,VALID,0.185902,
2007-04-03, 00:07:00,VALID,918.079,VALID,0,VALID,100,VALID,-0.0169808,VALID,20.2631,VALID,39,VALID,0.68641,
2007-04-03, 00:08:00,VALID,918.06,VALID,0,VALID,100,VALID,0.0169808,VALID,20.2631,VALID,33,VALID,0.670387,
2007-04-03, 00:09:00,VALID,918.051,VALID,0,VALID,100,VALID,-0.0169808,VALID,20.2602,VALID,38,VALID,0.956759,
2007-04-03, 00:10:00,VALID,918.04,VALID,0,VALID,100,VALID,-0.0169808,VALID,20.2699,VALID,38,VALID,1.04906,
2007-04-03, 00:11:00,VALID,918.036,VALID,0,VALID,100,VALID,0,VALID,20.2894,VALID,37,VALID,0.473586,
2007-04-03, 00:12:00,VALID,918.021,VALID,0,VALID,100,VALID,0,VALID,20.3153,VALID,37,VALID,0.333789,
2007-04-03, 00:13:00,VALID,918.01,VALID,0,VALID,100,VALID,0,VALID,20.2729,VALID,35,VALID,0.412064,
2007-04-03, 00:14:00,VALID,918.001,VALID,0,VALID,100,VALID,0.0339617,VALID,20.2891,VALID,34,VALID,0.56851,
2007-04-03, 00:15:00,VALID,917.999,VALID,0,VALID,100,VALID,-0.0169808,VALID,20.2894,VALID,36,VALID,0.668501,
2007-04-03, 00:16:00,VALID,917.985,VALID,0,VALID,100,VALID,0.0169808,VALID,20.2764,VALID,25,VALID,0.609184,
2007-04-03, 00:17:00,VALID,917.985,VALID,0,VALID,100,VALID,0,VALID,20.2736,VALID,26,VALID,0.46582,
2007-04-03, 00:18:00,VALID,917.987,VALID,0,VALID,100,VALID,0,VALID,20.2896,VALID,26,VALID,0.117622,
2007-04-03, 00:19:00,VALID,917.969,VALID,0,VALID,100,VALID,-0.0169808,VALID,20.2859,VALID,26,VALID,0.200107,
2007-04-03, 00:20:00,VALID,917.967,VALID,0,VALID,100,VALID,-0.0169808,VALID,20.2826,VALID,26,VALID,0.119368,
2007-04-03, 00:21:00,VALID,917.957,VALID,0,VALID,100,VALID,0,VALID,20.2239,VALID,26,VALID,0.0719477,
2007-04-03, 00:22:00,VALID,917.959,VALID,0,VALID,100,VALID,-0.0169808,VALID,20.2272,VALID,26,VALID,0.00223214,
2007-04-03, 00:23:00,VALID,917.952,VALID,0,VALID,100,VALID,0,VALID,20.2367,VALID,26,VALID,0,
2007-04-03, 00:24:00,VALID,917.943,VALID,0,VALID,100,VALID,0,VALID,20.2237,VALID,26,VALID,0,
2007-04-03, 00:25:00,VALID,917.935,VALID,0,VALID,100,VALID,0,VALID,20.2077,VALID,26,VALID,0,
2007-04-03, 00:26:00,VALID,917.935,VALID,0,VALID,100,VALID,0,VALID,20.2017,VALID,26,VALID,0.124399,
2007-04-03, 00:27:00,VALID,917.92,VALID,0,VALID,100,VALID,0,VALID,20.2012,VALID,12,VALID,0.0865091,
2007-04-03, 00:28:00,VALID,917.925,VALID,0,VALID,100,VALID,-0.0169808,VALID,20.209,VALID,314,VALID,0.331143,
2007-04-03, 00:29:00,VALID,917.927,VALID,0,VALID,100,VALID,-0.101885,VALID,20.1776,VALID,314,VALID,0.262695,
2007-04-03, 00:30:00,VALID,917.924,VALID,0,VALID,100,VALID,-0.135847,VALID,20.1541,VALID,314,VALID,0.345982,
2007-04-03, 00:31:00,VALID,917.921,VALID,0,VALID,100,VALID,-0.0679233,VALID,20.1603,VALID,314,VALID,0.223958,
2007-04-03, 00:32:00,VALID,917.916,VALID,0,VALID,100,VALID,-0.101885,VALID,20.1573,VALID,314,VALID,0.33718,
2007-04-03, 00:33:00,VALID,917.915,VALID,0,VALID,100,VALID,-0.101885,VALID,20.1406,VALID,314,VALID,0.151677,
2007-04-03, 00:34:00,VALID,917.912,VALID,0,VALID,100,VALID,-0.0849042,VALID,20.1444,VALID,314,VALID,0.0873264,
2007-04-03, 00:35:00,VALID,917.912,VALID,0,VALID,100,VALID,-0.101885,VALID,20.1411,VALID,314,VALID,0,
2007-04-03, 00:36:00,VALID,917.9,VALID,0,VALID,100,VALID,-0.118866,VALID,20.1444,VALID,314,VALID,0,
2007-04-03, 00:37:00,VALID,917.895,VALID,0,VALID,100,VALID,-0.101885,VALID,20.1646,VALID,314,VALID,0,
2007-04-03, 00:38:00,VALID,917.885,VALID,0,VALID,100,VALID,-0.0849042,VALID,20.1771,VALID,314,VALID,0,
2007-04-03, 00:39:00,VALID,917.893,VALID,0,VALID,100,VALID,-0.101885,VALID,20.2033,VALID,314,VALID,0,
2007-04-03, 00:40:00,VALID,917.869,VALID,0,VALID,100,VALID,-0.101885,VALID,20.206,VALID,314,VALID,0,
2007-04-03, 00:41:00,VALID,917.845,VALID,0,VALID,100,VALID,-0.101885,VALID,20.2192,VALID,314,VALID,0,
2007-04-03, 00:42:00,VALID,917.825,VALID,0,VALID,100,VALID,-0.0849042,VALID,20.2185,VALID,314,VALID,0,
2007-04-03, 00:43:00,VALID,917.789,VALID,0,VALID,100,VALID,-0.0849042,VALID,20.225,VALID,314,VALID,0.0078125,
2007-04-03, 00:44:00,VALID,917.779,VALID,0,VALID,100,VALID,0.0169808,VALID,20.2239,VALID,314,VALID,0.0300071,
2007-04-03, 00:45:00,VALID,917.765,VALID,0,VALID,100,VALID,0,VALID,20.2274,VALID,314,VALID,0.0975654,
2007-04-03, 00:46:00,VALID,917.749,VALID,0,VALID,100,VALID,0.0169808,VALID,20.1847,VALID,314,VALID,0.067023,
2007-04-03, 00:47:00,VALID,917.73,VALID,0,VALID,100,VALID,0.0169808,VALID,20.1685,VALID,314,VALID,0.0252976,
2007-04-03, 00:48:00,VALID,917.707,VALID,0,VALID,100,VALID,0.0339617,VALID,20.178,VALID,314,VALID,0,
2007-04-03, 00:49:00,VALID,917.69,VALID,0,VALID,100,VALID,-0.0169808,VALID,20.1977,VALID,314,VALID,0,
2007-04-03, 00:50:00,VALID,917.662,VALID,0,VALID,100,VALID,0.0169808,VALID,20.204,VALID,314,VALID,0,
2007-04-03, 00:51:00,VALID,917.65,VALID,0,VALID,100,VALID,0,VALID,20.2145,VALID,314,VALID,0,
2007-04-03, 00:52:00,VALID,917.639,VALID,0,VALID,100,VALID,0.0169808,VALID,20.2202,VALID,314,VALID,0,
2007-04-03, 00:53:00,VALID,917.618,VALID,0,VALID,100,VALID,0,VALID,20.2237,VALID,314,VALID,0.0105378,
2007-04-03, 00:54:00,VALID,917.605,VALID,0,VALID,100,VALID,0.0509425,VALID,20.2237,VALID,314,VALID,0.0232515,
2007-04-03, 00:55:00,VALID,917.577,VALID,0,VALID,100,VALID,-0.0169808,VALID,20.2569,VALID,314,VALID,0.099657,
2007-04-03, 00:56:00,VALID,917.567,VALID,0,VALID,100,VALID,0.0339617,VALID,20.2432,VALID,314,VALID,0.0171131,
2007-04-03, 00:57:00,VALID,917.545,VALID,0,VALID,100,VALID,0.0339617,VALID,20.2499,VALID,314,VALID,0.319767,
2007-04-03, 00:58:00,VALID,917.522,VALID,0,VALID,100,VALID,0.0339617,VALID,20.2534,VALID,314,VALID,0.248785,
2007-04-03, 00:59:00,VALID,917.495,VALID,0,VALID,100,VALID,0,VALID,20.2724,VALID,314,VALID,0.313702,
2007-04-03, 01:00:00,VALID,917.488,VALID,0,VALID,100,VALID,0,VALID,20.2923,VALID,314,VALID,0.20293,
2007-04-03, 01:01:00,VALID,917.461,VALID,0,VALID,100,VALID,0.0169808,VALID,20.3021,VALID,314,VALID,0.0963542,
2007-04-03, 01:02:00,VALID,917.433,VALID,0,VALID,100,VALID,0.0169808,VALID,20.2891,VALID,314,VALID,0.32066,
2007-04-03, 01:03:00,VALID,917.417,VALID,0,VALID,100,VALID,0,VALID,20.2626,VALID,314,VALID,0.27474,
2007-04-03, 01:04:00,VALID,917.415,VALID,0,VALID,100,VALID,0,VALID,20.2434,VALID,314,VALID,0.150799,
2007-04-03, 01:05:00,VALID,917.41,VALID,0,VALID,100,VALID,0.0169808,VALID,20.2372,VALID,314,VALID,0.287153,
2007-04-03, 01:06:00,VALID,917.405,VALID,0,VALID,100,VALID,0,VALID,20.2307,VALID,314,VALID,0.279652,
2007-04-03, 01:07:00,VALID,917.387,VALID,0,VALID,100,VALID,0,VALID,20.2245,VALID,314,VALID,0.176599,
2007-04-03, 01:08:00,VALID,917.394,VALID,0,VALID,100,VALID,-0.0169808,VALID,20.208,VALID,314,VALID,0.269259,
2007-04-03, 01:09:00,VALID,917.369,VALID,0,VALID,100,VALID,0,VALID,20.1947,VALID,314,VALID,0.0823038,
2007-04-03, 01:10:00,VALID,917.361,VALID,0,VALID,100,VALID,0,VALID,20.1952,VALID,314,VALID,0.0435547,
2007-04-03, 01:11:00,VALID,917.359,VALID,0,VALID,100,VALID,0.0169808,VALID,20.1942,VALID,314,VALID,0,
2007-04-03, 01:12:00,VALID,917.333,VALID,0,VALID,100,VALID,0.0339617,VALID,20.1877,VALID,314,VALID,0.00763081,
2007-04-03, 01:13:00,VALID,917.321,VALID,0,VALID,100,VALID,0.0339617,VALID,20.1753,VALID,314,VALID,0.0365234,
2007-04-03, 01:14:00,VALID,917.307,VALID,0,VALID,100,VALID,0,VALID,20.1655,VALID,314,VALID,0,
2007-04-03, 01:15:00,VALID,917.289,VALID,0,VALID,100,VALID,-0.0169808,VALID,20.1758,VALID,314,VALID,0.00121528,
2007-04-03, 01:16:00,VALID,917.263,VALID,0,VALID,100,VALID,0,VALID,20.165,VALID,314,VALID,0.194957,
2007-04-03, 01:17:00,VALID,917.255,VALID,0,VALID,100,VALID,0.0169808,VALID,20.185,VALID,314,VALID,0.351376,
2007-04-03, 01:18:00,VALID,917.24,VALID,0,VALID,100,VALID,0.0339617,VALID,20.1847,VALID,314,VALID,0.365412,
2007-04-03, 01:19:00,VALID,917.228,VALID,0,VALID,100,VALID,0.0169808,VALID,20.159,VALID,314,VALID,0.336664,
2007-04-03, 01:20:00,VALID,917.221,VALID,0,VALID,100,VALID,-0.0339617,VALID,20.1431,VALID,314,VALID,0.2883,
2007-04-03, 01:21:00,VALID,917.209,VALID,0,VALID,100,VALID,-0.0169808,VALID,20.1493,VALID,314,VALID,0.0903201,
2007-04-03, 01:22:00,VALID,917.181,VALID,0,VALID,100,VALID,-0.0169808,VALID,20.1526,VALID,314,VALID,0.0347842,
2007-04-03, 01:23:00,VALID,917.169,VALID,0,VALID,100,VALID,0.0169808,VALID,20.1558,VALID,314,VALID,0.30599,
2007-04-03, 01:24:00,VALID,917.153,VALID,0,VALID,100,VALID,-0.0169808,VALID,20.1596,VALID,314,VALID,0.384411,
2007-04-03, 01:25:00,VALID,917.117,VALID,0,VALID,100,VALID,-0.0169808,VALID,20.1436,VALID,341,VALID,0.374455,
2007-04-03, 01:26:00,VALID,917.084,VALID,0,VALID,100,VALID,-0.0169808,VALID,20.1134,VALID,35,VALID,0.897675,
2007-04-03, 01:27:00,VALID,917.061,VALID,0,VALID,100,VALID,-0.0339617,VALID,20.0882,VALID,33,VALID,0.80692,
2007-04-03, 01:28:00,VALID,917.023,VALID,0,VALID,100,VALID,0,VALID,20.0817,VALID,33,VALID,0.559273,
2007-04-03, 01:29:00,VALID,916.991,VALID,0,VALID,100,VALID,0,VALID,20.0525,VALID,37,VALID,0.730291,
2007-04-03, 01:30:00,VALID,916.968,VALID,0,VALID,100,VALID,-0.0169808,VALID,20.0485,VALID,37,VALID,0.720203,
2007-04-03, 01:31:00,VALID,916.947,VALID,0,VALID,100,VALID,-0.0169808,VALID,20.0555,VALID,33,VALID,0.731712,
2007-04-03, 01:32:00,VALID,916.933,VALID,0,VALID,100,VALID,0,VALID,20.0328,VALID,24,VALID,0.613467,
2007-04-03, 01:33:00,VALID,916.904,VALID,0,VALID,100,VALID,-0.0339617,VALID,20.0427,VALID,23,VALID,0.356707,
2007-04-03, 01:34:00,VALID,916.889,VALID,0,VALID,100,VALID,-0.0339617,VALID,20.0235,VALID,23,VALID,0.256669,
2007-04-03, 01:35:00,VALID,916.876,VALID,0,VALID,100,VALID,-0.0169808,VALID,20.0068,VALID,23,VALID,0.0216619,
2007-04-03, 01:36:00,VALID,916.863,VALID,0,VALID,100,VALID,-0.0169808,VALID,19.9936,VALID,23,VALID,0,
2007-04-03, 01:37:00,VALID,916.857,VALID,0,VALID,100,VALID,0,VALID,20.0008,VALID,23,VALID,0.0719866,
2007-04-03, 01:38:00,VALID,916.84,VALID,0,VALID,100,VALID,-0.0339617,VALID,19.9741,VALID,23,VALID,0.0260417,
2007-04-03, 01:39:00,VALID,916.819,VALID,0,VALID,100,VALID,0,VALID,19.9646,VALID,23,VALID,0,
2007-04-03, 01:40:00,VALID,916.802,VALID,0,VALID,100,VALID,0.0169808,VALID,19.9641,VALID,23,VALID,0,
2007-04-03, 01:41:00,VALID,916.788,VALID,0,VALID,100,VALID,0.0339617,VALID,19.9741,VALID,23,VALID,0,
2007-04-03, 01:42:00,VALID,916.758,VALID,0,VALID,100,VALID,-0.0169808,VALID,19.9971,VALID,23,VALID,0,
2007-04-03, 01:43:00,VALID,916.741,VALID,0,VALID,100,VALID,-0.0169808,VALID,20.0008,VALID,23,VALID,0,
2007-04-03, 01:44:00,VALID,916.733,VALID,0,VALID,100,VALID,-0.0169808,VALID,20.02,VALID,23,VALID,0,
2007-04-03, 01:45:00,VALID,916.715,VALID,0,VALID,100,VALID,-0.0169808,VALID,20.0235,VALID,23,VALID,0.00130208,
2007-04-03, 01:46:00,VALID,916.694,VALID,0,VALID,100,VALID,-0.0339617,VALID,20.0041,VALID,23,VALID,0,
2007-04-03, 01:47:00,VALID,916.678,VALID,0,VALID,100,VALID,-0.0169808,VALID,19.9749,VALID,23,VALID,0,
2007-04-03, 01:48:00,VALID,916.659,VALID,0,VALID,100,VALID,-0.0169808,VALID,19.9549,VALID,23,VALID,0,
2007-04-03, 01:49:00,VALID,916.632,VALID,0,VALID,100,VALID,-0.0679233,VALID,19.9719,VALID,23,VALID,0,
2007-04-03, 01:50:00,VALID,916.611,VALID,0,VALID,100,VALID,0,VALID,19.9773,VALID,23,VALID,0,
2007-04-03, 01:51:00,VALID,916.572,VALID,0,VALID,100,VALID,-0.0339617,VALID,20.0138,VALID,23,VALID,0.019077,
2007-04-03, 01:52:00,VALID,916.55,VALID,0,VALID,100,VALID,-0.0169808,VALID,20.0168,VALID,23,VALID,0.0195313,
2007-04-03, 01:53:00,VALID,916.526,VALID,0,VALID,100,VALID,-0.0169808,VALID,20.0335,VALID,23,VALID,0.300305,
2007-04-03, 01:54:00,VALID,916.523,VALID,0,VALID,100,VALID,0,VALID,20.0333,VALID,30,VALID,0.508575,
2007-04-03, 01:55:00,VALID,916.499,VALID,0,VALID,100,VALID,0,VALID,20.03,VALID,40,VALID,0.763158,
2007-04-03, 01:56:00,VALID,916.49,VALID,0,VALID,100,VALID,0,VALID,20.0203,VALID,49,VALID,0.560785,
2007-04-03, 01:57:00,VALID,916.479,VALID,0,VALID,100,VALID,0,VALID,20.0041,VALID,49,VALID,0.409375,
2007-04-03, 01:58:00,VALID,916.473,VALID,0,VALID,100,VALID,-0.0339617,VALID,20.0006,VALID,49,VALID,0.204799,
2007-04-03, 01:59:00,VALID,916.456,VALID,0,VALID,100,VALID,-0.0509425,VALID,19.9878,VALID,49,VALID,0,
2007-04-03, 02:00:00,VALID,916.444,VALID,0,VALID,100,VALID,-0.0339617,VALID,19.9783,VALID,49,VALID,0.000381098,
2007-04-03, 02:01:00,VALID,916.416,VALID,0,VALID,100,VALID,-0.0509425,VALID,19.9916,VALID,49,VALID,0.133743,
2007-04-03, 02:02:00,VALID,916.391,VALID,0,VALID,100,VALID,-0.0509425,VALID,20.0076,VALID,49,VALID,0,
2007-04-03, 02:03:00,VALID,916.378,VALID,0,VALID,100,VALID,-0.0169808,VALID,20.0105,VALID,49,VALID,0,
2007-04-03, 02:04:00,VALID,916.353,VALID,0,VALID,100,VALID,-0.0169808,VALID,20.0108,VALID,49,VALID,0.0552591,
2007-04-03, 02:05:00,VALID,916.33,VALID,0,VALID,100,VALID,-0.0679233,VALID,20.0076,VALID,49,VALID,0.198933,
2007-04-03, 02:06:00,VALID,916.308,VALID,0,VALID,100,VALID,-0.0339617,VALID,20.0011,VALID,49,VALID,0.496094,
2007-04-03, 02:07:00,VALID,916.29,VALID,0,VALID,100,VALID,-0.0169808,VALID,20.0038,VALID,44,VALID,0.690044,
2007-04-03, 02:08:00,VALID,916.28,VALID,0,VALID,100,VALID,-0.0169808,VALID,20.0038,VALID,43,VALID,0.657552,
2007-04-03, 02:09:00,VALID,916.281,VALID,0,VALID,100,VALID,0,VALID,19.9773,VALID,43,VALID,0.730841,
2007-04-03, 02:10:00,VALID,916.27,VALID,0,VALID,100,VALID,0,VALID,19.9749,VALID,42,VALID,0.626776,
2007-04-03, 02:11:00,VALID,916.27,VALID,0,VALID,100,VALID,-0.0169808,VALID,19.9646,VALID,36,VALID,0.40968,
2007-04-03, 02:12:00,VALID,916.269,VALID,0,VALID,100,VALID,-0.0169808,VALID,19.9646,VALID,36,VALID,0.206321,
2007-04-03, 02:13:00,VALID,916.255,VALID,0,VALID,100,VALID,0.0169808,VALID,19.9813,VALID,36,VALID,0.0671875,
2007-04-03, 02:14:00,VALID,916.265,VALID,0,VALID,100,VALID,0.0849042,VALID,19.9634,VALID,36,VALID,0.0584985,
2007-04-03, 02:15:00,VALID,916.273,VALID,0,VALID,100,VALID,0.101885,VALID,19.9406,VALID,36,VALID,0.00130208,
2007-04-03, 02:16:00,VALID,916.245,VALID,0,VALID,100,VALID,0.0679233,VALID,19.9639,VALID,36,VALID,0.215216,
2007-04-03, 02:17:00,VALID,916.244,VALID,0,VALID,100,VALID,0.0849042,VALID,19.9726,VALID,36,VALID,0.481217,
2007-04-03, 02:18:00,VALID,916.233,VALID,0,VALID,100,VALID,0.0849042,VALID,19.9696,VALID,36,VALID,0.432736,
2007-04-03, 02:19:00,VALID,916.209,VALID,0,VALID,100,VALID,0.101885,VALID,19.9701,VALID,36,VALID,0.0188643,
2007-04-03, 02:20:01,VALID,916.186,VALID,0,VALID,100,VALID,0.0849042,VALID,19.9831,VALID,36,VALID,0,
2007-04-03, 02:21:01,VALID,916.153,VALID,0,VALID,100,VALID,0.0849042,VALID,19.9993,VALID,36,VALID,0.0290421,
2007-04-03, 02:22:00,VALID,916.145,VALID,0,VALID,100,VALID,0.0679233,VALID,19.9893,VALID,35,VALID,0.255435,
2007-04-03, 02:23:00,VALID,916.12,VALID,0,VALID,100,VALID,0.0679233,VALID,19.9766,VALID,329,VALID,0.382813,
2007-04-03, 02:24:01,VALID,916.11,VALID,0,VALID,100,VALID,0.101885,VALID,19.9599,VALID,311,VALID,0.130451,
2007-04-03, 02:25:00,VALID,916.092,VALID,0,VALID,100,VALID,0.0679233,VALID,19.9733,VALID,311,VALID,0.00497159,
2007-04-03, 02:26:01,VALID,916.06,VALID,0,VALID,100,VALID,0.0679233,VALID,19.9963,VALID,311,VALID,0.0623047,
2007-04-03, 02:27:00,VALID,916.068,VALID,0,VALID,100,VALID,0.0339617,VALID,20.009,VALID,311,VALID,0.160738,
2007-04-03, 02:28:00,VALID,916.045,VALID,0,VALID,100,VALID,0.0339617,VALID,20.0385,VALID,311,VALID,0.247456,
2007-04-03, 02:29:00,VALID,916.048,VALID,0,VALID,100,VALID,-0.101885,VALID,20.0505,VALID,311,VALID,0.0557528,
2007-04-03, 02:30:00,VALID,916.051,VALID,0,VALID,100,VALID,-0.101885,VALID,20.0637,VALID,311,VALID,0.00130208,
2007-04-03, 02:31:00,VALID,916.038,VALID,0,VALID,100,VALID,-0.101885,VALID,20.0545,VALID,311,VALID,0.241765,
2007-04-03, 02:32:00,VALID,916.025,VALID,0,VALID,100,VALID,-0.118866,VALID,20.0408,VALID,340,VALID,0.598133,
2007-04-03, 02:33:01,VALID,916.01,VALID,0,VALID,100,VALID,-0.152827,VALID,20.0448,VALID,22,VALID,0.752131,
2007-04-03, 02:34:00,VALID,916,VALID,0,VALID,100,VALID,-0.152827,VALID,20.0348,VALID,41,VALID,0.658854,
2007-04-03, 02:35:00,VALID,916.001,VALID,0,VALID,100,VALID,-0.152827,VALID,20.0315,VALID,47,VALID,0.140807,
2007-04-03, 02:36:00,VALID,916.003,VALID,0,VALID,100,VALID,-0.101885,VALID,20.0215,VALID,40,VALID,0.30522,
2007-04-03, 02:37:01,VALID,915.983,VALID,0,VALID,100,VALID,-0.101885,VALID,19.9993,VALID,39,VALID,0.123666,
2007-04-03, 02:38:01,VALID,915.97,VALID,0,VALID,100,VALID,-0.101885,VALID,19.9699,VALID,39,VALID,0,
2007-04-03, 02:39:00,VALID,915.945,VALID,0,VALID,100,VALID,-0.101885,VALID,19.9502,VALID,39,VALID,0,
2007-04-03, 02:40:00,VALID,915.927,VALID,0,VALID,100,VALID,-0.0679233,VALID,19.9342,VALID,39,VALID,0,
2007-04-03, 02:41:00,VALID,915.902,VALID,0,VALID,100,VALID,-0.118866,VALID,19.9274,VALID,39,VALID,0,
2007-04-03, 02:42:00,VALID,915.872,VALID,0,VALID,100,VALID,-0.118866,VALID,19.9209,VALID,39,VALID,0,
2007-04-03, 02:43:00,VALID,915.85,VALID,0,VALID,100,VALID,-0.101885,VALID,19.9075,VALID,39,VALID,0,
2007-04-03, 02:44:01,VALID,915.831,VALID,0,VALID,100,VALID,-0.0169808,VALID,19.8803,VALID,39,VALID,0,
2007-04-03, 02:45:00,VALID,915.806,VALID,0,VALID,100,VALID,-0.0339617,VALID,19.8775,VALID,39,VALID,0,
2007-04-03, 02:46:00,VALID,915.792,VALID,0,VALID,100,VALID,-0.0509425,VALID,19.8713,VALID,39,VALID,0,
2007-04-03, 02:47:00,VALID,915.768,VALID,0,VALID,100,VALID,0,VALID,19.8575,VALID,39,VALID,0,
2007-04-03, 02:48:01,VALID,915.749,VALID,0,VALID,100,VALID,0.0169808,VALID,19.861,VALID,39,VALID,0,
2007-04-03, 02:49:01,VALID,915.719,VALID,0,VALID,100,VALID,-0.0339617,VALID,19.8453,VALID,39,VALID,0,
2007-04-03, 02:50:00,VALID,915.692,VALID,0,VALID,100,VALID,0,VALID,19.8288,VALID,39,VALID,0,
2007-04-03, 02:51:00,VALID,915.668,VALID,0,VALID,100,VALID,-0.0169808,VALID,19.8156,VALID,39,VALID,0,
2007-04-03, 02:52:00,VALID,915.645,VALID,0,VALID,100,VALID,0,VALID,19.8091,VALID,39,VALID,0,
2007-04-03, 02:53:00,VALID,915.629,VALID,0,VALID,100,VALID,-0.0339617,VALID,19.7931,VALID,39,VALID,0,
2007-04-03, 02:54:01,VALID,915.604,VALID,0,VALID,100,VALID,-0.0339617,VALID,19.8031,VALID,39,VALID,0,
2007-04-03, 02:55:00,VALID,915.592,VALID,0,VALID,100,VALID,-0.0339617,VALID,19.8026,VALID,39,VALID,0,
2007-04-03, 02:56:00,VALID,915.576,VALID,0,VALID,100,VALID,0,VALID,19.8026,VALID,39,VALID,0.110465,
2007-04-03, 02:57:00,VALID,915.584,VALID,0,VALID,100,VALID,0,VALID,19.8256,VALID,39,VALID,0.12571,
2007-04-03, 02:58:01,VALID,915.588,VALID,0,VALID,100,VALID,-0.0169808,VALID,19.8191,VALID,39,VALID,0,
2007-04-03, 02:59:01,VALID,915.584,VALID,0,VALID,100,VALID,-0.101885,VALID,19.8336,VALID,39,VALID,0,
2007-04-03, 03:00:01,VALID,915.575,VALID,0,VALID,100,VALID,-0.0849042,VALID,19.8229,VALID,39,VALID,0.153232,
2007-04-03, 03:01:00,VALID,915.553,VALID,0,VALID,100,VALID,-0.0849042,VALID,19.7709,VALID,41,VALID,0.583507,
2007-04-03, 03:02:00,VALID,915.54,VALID,0,VALID,100,VALID,-0.0509425,VALID,19.7385,VALID,42,VALID,0.737464,
2007-04-03, 03:03:01,VALID,915.524,VALID,0,VALID,100,VALID,-0.0849042,VALID,19.7128,VALID,42,VALID,0.618521,
2007-04-03, 03:04:00,VALID,915.518,VALID,0,VALID,100,VALID,-0.0849042,VALID,19.703,VALID,42,VALID,0.644922,
2007-04-03, 03:05:00,VALID,915.491,VALID,0,VALID,100,VALID,-0.0509425,VALID,19.6901,VALID,42,VALID,0.809613,
2007-04-03, 03:06:01,VALID,915.487,VALID,0,VALID,100,VALID,-0.0679233,VALID,19.6704,VALID,42,VALID,0.743902,
2007-04-03, 03:07:01,VALID,915.478,VALID,0,VALID,100,VALID,-0.0679233,VALID,19.6579,VALID,41,VALID,0.474964,
2007-04-03, 03:08:01,VALID,915.464,VALID,0,VALID,100,VALID,-0.0849042,VALID,19.6776,VALID,38,VALID,0.904297,
2007-04-03, 03:09:00,VALID,915.46,VALID,0,VALID,100,VALID,-0.0339617,VALID,19.6836,VALID,34,VALID,0.649653,
2007-04-03, 03:10:00,VALID,915.457,VALID,0,VALID,100,VALID,-0.0509425,VALID,19.6928,VALID,27,VALID,0.289063,
2007-04-03, 03:11:01,VALID,915.445,VALID,0,VALID,100,VALID,-0.0339617,VALID,19.6993,VALID,27,VALID,0.119731,
2007-04-03, 03:12:00,VALID,915.445,VALID,0,VALID,100,VALID,-0.0509425,VALID,19.6993,VALID,27,VALID,0.0599564,
2007-04-03, 03:13:00,VALID,915.445,VALID,0,VALID,100,VALID,-0.0679233,VALID,19.706,VALID,27,VALID,0.093936,
2007-04-03, 03:14:01,VALID,915.462,VALID,0,VALID,100,VALID,-0.0339617,VALID,19.7188,VALID,27,VALID,0,
2007-04-03, 03:15:00,VALID,915.479,VALID,0,VALID,100,VALID,-0.0509425,VALID,19.7158,VALID,27,VALID,0,
2007-04-03, 03:16:01,VALID,915.482,VALID,0,VALID,100,VALID,-0.0169808,VALID,19.7021,VALID,27,VALID,0,
2007-04-03, 03:17:01,VALID,915.481,VALID,0,VALID,100,VALID,-0.0169808,VALID,19.7155,VALID,27,VALID,0.0322027,
2007-04-03, 03:18:01,VALID,915.479,VALID,0,VALID,100,VALID,-0.0339617,VALID,19.7058,VALID,27,VALID,0.28343,
2007-04-03, 03:19:01,VALID,915.493,VALID,0,VALID,100,VALID,-0.0509425,VALID,19.6993,VALID,27,VALID,0.287609,
2007-04-03, 03:20:01,VALID,915.481,VALID,0,VALID,100,VALID,-0.0509425,VALID,19.6996,VALID,27,VALID,0.22619,
2007-04-03, 03:21:01,VALID,915.495,VALID,0,VALID,100,VALID,-0.0509425,VALID,19.6963,VALID,27,VALID,0.369913,
2007-04-03, 03:22:00,VALID,915.491,VALID,0,VALID,100,VALID,-0.0339617,VALID,19.6931,VALID,27,VALID,0.240663,
2007-04-03, 03:23:00,VALID,915.485,VALID,0,VALID,100,VALID,-0.0849042,VALID,19.6963,VALID,27,VALID,0.237282,
2007-04-03, 03:24:00,VALID,915.505,VALID,0,VALID,100,VALID,-0.0169808,VALID,19.6933,VALID,27,VALID,0.103871,
2007-04-03, 03:25:00,VALID,915.504,VALID,0,VALID,100,VALID,0,VALID,19.7025,VALID,27,VALID,0.183689,
2007-04-03, 03:26:00,VALID,915.519,VALID,0,VALID,100,VALID,-0.0509425,VALID,19.7125,VALID,27,VALID,0.0287642,
2007-04-03, 03:27:00,VALID,915.525,VALID,0,VALID,100,VALID,-0.0339617,VALID,19.722,VALID,27,VALID,0.00121528,
2007-04-03, 03:28:00,VALID,915.529,VALID,0,VALID,100,VALID,-0.0849042,VALID,19.7253,VALID,27,VALID,0,
2007-04-03, 03:29:00,VALID,915.537,VALID,0,VALID,100,VALID,-0.0679233,VALID,19.7385,VALID,27,VALID,0,
2007-04-03, 03:30:00,VALID,915.554,VALID,0,VALID,100,VALID,-0.0169808,VALID,19.745,VALID,27,VALID,0,
2007-04-03, 03:31:00,VALID,915.558,VALID,0,VALID,100,VALID,-0.0509425,VALID,19.7679,VALID,27,VALID,0.00558036,
2007-04-03, 03:32:00,VALID,915.572,VALID,0,VALID,100,VALID,-0.0509425,VALID,19.7772,VALID,27,VALID,0,
2007-04-03, 03:33:00,VALID,915.581,VALID,0,VALID,100,VALID,-0.0339617,VALID,19.7931,VALID,27,VALID,0.00111607,
2007-04-03, 03:34:00,VALID,915.605,VALID,0,VALID,100,VALID,-0.0679233,VALID,19.8166,VALID,27,VALID,0.151172,
2007-04-03, 03:35:00,VALID,915.605,VALID,0,VALID,100,VALID,-0.0339617,VALID,19.8358,VALID,27,VALID,0.328526,
2007-04-03, 03:36:00,VALID,915.624,VALID,0,VALID,100,VALID,-0.0679233,VALID,19.8553,VALID,27,VALID,0.22061,
2007-04-03, 03:37:00,VALID,915.627,VALID,0,VALID,100,VALID,-0.0849042,VALID,19.869,VALID,27,VALID,0.0822173,
2007-04-03, 03:38:00,VALID,915.643,VALID,0,VALID,100,VALID,-0.101885,VALID,19.8493,VALID,27,VALID,0.122275,
2007-04-03, 03:39:00,VALID,915.658,VALID,0,VALID,100,VALID,-0.101885,VALID,19.8293,VALID,27,VALID,0.200284,
2007-04-03, 03:40:00,VALID,915.663,VALID,0,VALID,100,VALID,-0.0849042,VALID,19.8131,VALID,27,VALID,0.189918,
2007-04-03, 03:41:00,VALID,915.653,VALID,0,VALID,100,VALID,-0.0339617,VALID,19.8096,VALID,27,VALID,0.05625,
2007-04-03, 03:42:00,VALID,915.647,VALID,0,VALID,100,VALID,-0.0849042,VALID,19.8131,VALID,27,VALID,0,
2007-04-03, 03:43:00,VALID,915.632,VALID,0,VALID,100,VALID,0,VALID,19.8391,VALID,27,VALID,0.0961806,